| time (UTC) | temp C | wind direction | speed KPH | gust KPH | rain 1hr cm | rain 24hr cm | rain mn cm | humidity % | barometer mb |
| 20260504173705 | 13 | 255 | 6.4 | 20.9 | 0.33 | 0.33 | 0.33 | 91 | 1011.3 |
| 20260504173218 | 13 | 248 | 8.0 | 20.9 | 0.33 | 0.33 | 0.33 | 91 | 1011.2 |
| 20260504172706 | 13 | 264 | 9.7 | 22.5 | 0.33 | 0.33 | 0.33 | 91 | 1011.2 |
| 20260504172207 | 13 | 243 | 11.3 | 22.5 | 0.30 | 0.33 | 0.33 | 91 | 1011.2 |
| 20260504171718 | 13 | 271 | 11.3 | 25.7 | 0.30 | 0.33 | 0.33 | 91 | 1011.1 |
| 20260504171219 | 13 | 271 | 12.9 | 25.7 | 0.30 | 0.33 | 0.33 | 91 | 1011.1 |
| 20260504170715 | 13 | 241 | 14.5 | 27.4 | 0.28 | 0.30 | 0.30 | 91 | 1011.0 |
| 20260504170209 | 13 | 232 | 11.3 | 29.0 | 0.28 | 0.30 | 0.30 | 90 | 1011.0 |
| 20260504160211 | 15 | 49 | 12.9 | 27.4 | 0.00 | 0.03 | 0.03 | 86 | 1009.5 |
| 20260504150707 | 16 | 59 | 14.5 | 30.6 | 0.00 | 0.03 | 0.03 | 79 | 1009.8 |
| 20260504150207 | 17 | 16 | 14.5 | 30.6 | 0.00 | 0.03 | 0.03 | 79 | 1009.8 |
| 20260504141214 | 18 | 5 | 19.3 | 30.6 | 0.00 | 0.03 | 0.03 | 77 | 1009.2 |
| 20260504130706 | 18 | 2 | 16.1 | 32.2 | 0.00 | 0.03 | 0.03 | 75 | 1010.3 |
| 20260504130219 | 18 | 4 | 16.1 | 30.6 | 0.00 | 0.03 | 0.03 | 76 | 1010.4 |
| 20260504120212 | 18 | 358 | 16.1 | 25.7 | 0.00 | 0.03 | 0.03 | 75 | 1011.1 |
| 20260504110709 | 18 | 9 | 11.3 | 19.3 | 0.03 | 0.03 | 0.03 | 78 | 1011.6 |
| 20260504110214 | 18 | 4 | 11.3 | 14.5 | 0.03 | 0.03 | 0.03 | 81 | 1011.7 |
| 20260504100216 | 17 | 59 | 3.2 | 9.7 | 0.00 | 0.00 | 0.00 | 82 | 1012.3 |
| 20260504081715 | 16 | 188 | 3.2 | 8.0 | 0.00 | 0.00 | 0.00 | 80 | 1012.6 |
| 20260504081216 | 16 | 209 | 1.6 | 8.0 | 0.00 | 0.00 | 0.00 | 80 | 1012.7 |
| 20260504080714 | 16 | 229 | 1.6 | 8.0 | 0.00 | 0.00 | 0.00 | 81 | 1012.7 |
| 20260504070217 | 15 | 0 | 0.0 | 4.8 | 0.00 | 0.00 | 0.00 | 87 | 1012.3 |
| 20260504060210 | 14 | 0 | 0.0 | 1.6 | 0.00 | 0.00 | 0.00 | 91 | 1011.6 |
| 20260504050711 | 13 | 165 | 1.6 | 4.8 | 0.00 | 0.00 | 0.00 | 92 | 1011.4 |
| 20260504050217 | 13 | 178 | 1.6 | 3.2 | 0.00 | 0.00 | 0.00 | 92 | 1011.5 |
| 20260504045717 | 13 | 210 | 1.6 | 4.8 | 0.00 | 0.00 | 0.00 | 92 | 1011.3 |
| 20260504045211 | 13 | 178 | 0.0 | 4.8 | 0.00 | 0.00 | 0.00 | 92 | 1011.4 |
| 20260504044708 | 12 | 160 | 1.6 | 4.8 | 0.00 | 0.00 | 0.00 | 92 | 1011.4 |
| 20260504044217 | 12 | 230 | 0.0 | 3.2 | 0.00 | 0.00 | 0.00 | 92 | 1011.3 |
| 20260504043712 | 12 | 0 | 0.0 | 3.2 | 0.00 | 0.00 | 0.00 | 92 | 1011.2 |
| 20260504043211 | 12 | 203 | 0.0 | 1.6 | 0.00 | 0.00 | 0.00 | 91 | 1011.3 |
| 20260504042711 | 13 | 0 | 0.0 | 3.2 | 0.00 | 0.00 | 0.00 | 91 | 1011.3 |
| 20260504041706 | 13 | 87 | 1.6 | 4.8 | 0.00 | 0.00 | 0.00 | 91 | 1011.2 |
| 20260504040705 | 13 | 189 | 0.0 | 3.2 | 0.00 | 0.00 | 0.00 | 91 | 1011.2 |
| 20260504040210 | 13 | 139 | 0.0 | 3.2 | 0.00 | 0.00 | 0.00 | 91 | 1011.3 |
| 20260504035705 | 13 | 149 | 3.2 | 3.2 | 0.00 | 0.00 | 0.00 | 91 | 1011.3 |
| 20260504034716 | 13 | 188 | 1.6 | 3.2 | 0.00 | 0.00 | 0.00 | 91 | 1011.4 |
| 20260504034205 | 13 | 205 | 0.0 | 1.6 | 0.00 | 0.00 | 0.00 | 91 | 1011.3 |
| 20260504033711 | 13 | 0 | 0.0 | 1.6 | 0.00 | 0.00 | 0.00 | 91 | 1011.2 |
| 20260504033217 | 13 | 210 | 0.0 | 1.6 | 0.00 | 0.00 | 0.00 | 91 | 1011.2 |
| 20260504032719 | 13 | 88 | 0.0 | 1.6 | 0.00 | 0.00 | 0.00 | 91 | 1011.3 |
| 20260504032212 | 13 | 120 | 0.0 | 3.2 | 0.00 | 0.00 | 0.00 | 91 | 1011.2 |
| 20260504031717 | 13 | 126 | 0.0 | 3.2 | 0.00 | 0.00 | 0.00 | 91 | 1011.1 |
| 20260504031208 | 13 | 156 | 3.2 | 3.2 | 0.00 | 0.00 | 0.00 | 90 | 1011.2 |
| 20260504030710 | 13 | 154 | 1.6 | 3.2 | 0.00 | 0.00 | 0.00 | 90 | 1011.3 |
| 20260504025709 | 13 | 268 | 0.0 | 1.6 | 0.00 | 0.00 | 0.00 | 91 | 1011.4 |
| 20260504024714 | 13 | 0 | 0.0 | 0.0 | 0.00 | 0.00 | 0.00 | 91 | 1011.5 |
| 20260504023716 | 13 | 0 | 0.0 | 3.2 | 0.00 | 0.00 | 0.00 | 90 | 1011.4 |
| 20260504022707 | 13 | 265 | 1.6 | 6.4 | 0.00 | 0.00 | 0.00 | 90 | 1011.6 |
| 20260504022209 | 13 | 333 | 1.6 | 4.8 | 0.00 | 0.00 | 0.00 | 90 | 1011.6 |
| 20260504021708 | 13 | 344 | 1.6 | 4.8 | 0.00 | 0.00 | 0.00 | 90 | 1011.7 |
| 20260504020717 | 13 | 0 | 0.0 | 4.8 | 0.00 | 0.00 | 0.00 | 90 | 1011.6 |
| 20260504020216 | 13 | 320 | 0.0 | 4.8 | 0.00 | 0.00 | 0.00 | 90 | 1011.6 |
| 20260504015706 | 13 | 5 | 1.6 | 6.4 | 0.00 | 0.00 | 0.00 | 89 | 1012.0 |
| 20260504014706 | 13 | 344 | 3.2 | 6.4 | 0.00 | 0.00 | 0.00 | 89 | 1011.7 |
| 20260504014207 | 13 | 355 | 1.6 | 8.0 | 0.00 | 0.00 | 0.00 | 89 | 1011.9 |
| 20260504013714 | 14 | 4 | 3.2 | 8.0 | 0.00 | 0.00 | 0.00 | 89 | 1011.7 |
| 20260504013216 | 14 | 305 | 4.8 | 9.7 | 0.00 | 0.00 | 0.00 | 89 | 1011.7 |
| 20260504012210 | 14 | 1 | 6.4 | 9.7 | 0.00 | 0.00 | 0.00 | 89 | 1011.7 |
| 20260504011718 | 14 | 35 | 4.8 | 6.4 | 0.00 | 0.00 | 0.00 | 88 | 1011.7 |
| 20260504011209 | 14 | 5 | 3.2 | 6.4 | 0.00 | 0.00 | 0.00 | 88 | 1011.7 |
| 20260504010719 | 14 | 1 | 3.2 | 6.4 | 0.00 | 0.00 | 0.00 | 88 | 1011.7 |
| 20260504010216 | 14 | 5 | 3.2 | 8.0 | 0.00 | 0.00 | 0.00 | 88 | 1011.5 |
| 20260504005719 | 14 | 21 | 3.2 | 11.3 | 0.00 | 0.00 | 0.00 | 88 | 1011.7 |
| 20260504005215 | 14 | 8 | 4.8 | 11.3 | 0.00 | 0.00 | 0.00 | 88 | 1011.7 |
| 20260504004708 | 14 | 12 | 6.4 | 12.9 | 0.00 | 0.00 | 0.00 | 88 | 1011.7 |
| 20260504004213 | 14 | 358 | 8.0 | 12.9 | 0.00 | 0.00 | 0.00 | 88 | 1011.6 |
| 20260504003707 | 14 | 12 | 8.0 | 12.9 | 0.00 | 0.00 | 0.00 | 88 | 1011.6 |
| 20260504003206 | 14 | 16 | 8.0 | 9.7 | 0.00 | 0.00 | 0.00 | 88 | 1011.6 |
| 20260504002716 | 14 | 1 | 6.4 | 8.0 | 0.00 | 0.00 | 0.00 | 88 | 1011.7 |
| 20260504002212 | 14 | 11 | 4.8 | 11.3 | 0.00 | 0.00 | 0.00 | 88 | 1012.0 |
| 20260504001715 | 14 | 60 | 1.6 | 11.3 | 0.00 | 0.00 | 0.00 | 87 | 1012.0 |
| 20260504001219 | 14 | 22 | 6.4 | 11.3 | 0.00 | 0.00 | 0.00 | 87 | 1012.0 |
| 20260504000704 | 14 | 25 | 4.8 | 12.9 | 0.00 | 0.00 | 0.00 | 87 | 1012.0 |
| 20260504000213 | 14 | 68 | 8.0 | 12.9 | 0.00 | 0.00 | 0.00 | 87 | 1012.0 |
| 20260503235718 | 15 | 67 | 6.4 | 11.3 | 0.00 | 0.00 | 0.00 | 86 | 1012.0 |
| 20260503234714 | 15 | 8 | 6.4 | 11.3 | 0.00 | 0.00 | 0.00 | 87 | 1012.0 |
| 20260503234217 | 15 | 39 | 4.8 | 8.0 | 0.00 | 0.00 | 0.00 | 86 | 1012.2 |
| 20260503233706 | 15 | 12 | 4.8 | 8.0 | 0.00 | 0.00 | 0.00 | 86 | 1012.2 |
| 20260503233215 | 15 | 73 | 4.8 | 9.7 | 0.00 | 0.00 | 0.00 | 85 | 1012.3 |
| 20260503232715 | 15 | 74 | 3.2 | 12.9 | 0.00 | 0.00 | 0.00 | 84 | 1012.3 |
| 20260503232205 | 15 | 19 | 4.8 | 12.9 | 0.00 | 0.00 | 0.00 | 84 | 1012.2 |
| 20260503231712 | 15 | 36 | 6.4 | 11.3 | 0.00 | 0.00 | 0.00 | 84 | 1012.3 |
| 20260503231210 | 15 | 59 | 6.4 | 14.5 | 0.00 | 0.00 | 0.00 | 83 | 1012.3 |
| 20260503230713 | 15 | 30 | 4.8 | 14.5 | 0.00 | 0.00 | 0.00 | 83 | 1012.3 |
| 20260503230205 | 15 | 42 | 6.4 | 11.3 | 0.00 | 0.00 | 0.00 | 83 | 1012.3 |
| 20260503225711 | 15 | 14 | 6.4 | 12.9 | 0.00 | 0.00 | 0.00 | 83 | 1012.3 |
| 20260503225213 | 15 | 5 | 8.0 | 12.9 | 0.00 | 0.00 | 0.00 | 83 | 1012.3 |
| 20260503224217 | 15 | 52 | 6.4 | 12.9 | 0.00 | 0.00 | 0.00 | 83 | 1012.4 |
| 20260503223717 | 15 | 4 | 6.4 | 12.9 | 0.00 | 0.00 | 0.00 | 83 | 1012.3 |
| 20260503223210 | 15 | 12 | 8.0 | 14.5 | 0.00 | 0.00 | 0.00 | 84 | 1012.4 |
| 20260503222717 | 15 | 16 | 6.4 | 16.1 | 0.00 | 0.00 | 0.00 | 83 | 1012.4 |
| 20260503222218 | 15 | 26 | 8.0 | 16.1 | 0.00 | 0.00 | 0.00 | 82 | 1012.3 |
| 20260503221711 | 15 | 39 | 8.0 | 17.7 | 0.00 | 0.00 | 0.00 | 81 | 1012.3 |
| 20260503221211 | 15 | 57 | 9.7 | 17.7 | 0.00 | 0.00 | 0.00 | 81 | 1012.3 |
| 20260503220717 | 15 | 30 | 9.7 | 20.9 | 0.00 | 0.00 | 0.00 | 81 | 1012.2 |
| 20260503220212 | 15 | 21 | 9.7 | 20.9 | 0.00 | 0.00 | 0.00 | 81 | 1012.2 |
| 20260503215715 | 15 | 355 | 11.3 | 20.9 | 0.00 | 0.00 | 0.00 | 82 | 1012.2 |
| 20260503215218 | 15 | 26 | 11.3 | 19.3 | 0.00 | 0.00 | 0.00 | 82 | 1012.3 |
| 20260503214212 | 15 | 9 | 11.3 | 17.7 | 0.00 | 0.00 | 0.00 | 82 | 1012.3 |
| 20260503213713 | 15 | 0 | 12.9 | 19.3 | 0.00 | 0.00 | 0.00 | 83 | 1012.2 |
| 20260503213217 | 15 | 22 | 9.7 | 19.3 | 0.00 | 0.00 | 0.00 | 83 | 1012.2 |
| 20260503211707 | 15 | 11 | 11.3 | 19.3 | 0.00 | 0.00 | 0.00 | 84 | 1012.3 |
| 20260503210711 | 15 | 15 | 9.7 | 17.7 | 0.00 | 0.00 | 0.00 | 83 | 1012.3 |
| 20260503210215 | 15 | 11 | 11.3 | 17.7 | 0.00 | 0.00 | 0.00 | 83 | 1012.3 |
| 20260503205707 | 15 | 9 | 11.3 | 17.7 | 0.00 | 0.00 | 0.00 | 82 | 1012.2 |
| 20260503205210 | 15 | 16 | 11.3 | 17.7 | 0.00 | 0.00 | 0.00 | 82 | 1012.3 |
| 20260503204717 | 16 | 25 | 9.7 | 17.7 | 0.00 | 0.00 | 0.00 | 82 | 1012.3 |
| 20260503204213 | 16 | 30 | 8.0 | 22.5 | 0.00 | 0.00 | 0.00 | 81 | 1012.3 |
| 20260503202210 | 16 | 47 | 9.7 | 25.7 | 0.00 | 0.00 | 0.00 | 77 | 1012.1 |
| 20260503201216 | 16 | 47 | 12.9 | 25.7 | 0.00 | 0.00 | 0.00 | 77 | 1012.0 |
| 20260503200712 | 16 | 9 | 12.9 | 25.7 | 0.00 | 0.00 | 0.00 | 76 | 1012.1 |
| 20260503200214 | 16 | 64 | 14.5 | 25.7 | 0.00 | 0.00 | 0.00 | 76 | 1012.0 |
| 20260503195715 | 16 | 52 | 12.9 | 19.3 | 0.00 | 0.00 | 0.00 | 76 | 1012.0 |
| 20260503195216 | 16 | 59 | 11.3 | 19.3 | 0.00 | 0.00 | 0.00 | 76 | 1012.0 |
| 20260503194715 | 16 | 40 | 8.0 | 24.1 | 0.00 | 0.00 | 0.00 | 76 | 1012.0 |
| 20260503194205 | 16 | 8 | 9.7 | 24.1 | 0.00 | 0.00 | 0.00 | 76 | 1012.0 |
| 20260503193210 | 16 | 54 | 9.7 | 25.7 | 0.00 | 0.00 | 0.00 | 76 | 1011.9 |
| 20260503192709 | 16 | 50 | 14.5 | 25.7 | 0.00 | 0.00 | 0.00 | 77 | 1011.7 |
| 20260503192207 | 16 | 70 | 12.9 | 20.9 | 0.00 | 0.00 | 0.00 | 77 | 1011.7 |
| 20260503191715 | 16 | 46 | 14.5 | 27.4 | 0.00 | 0.00 | 0.00 | 77 | 1011.7 |
| 20260503191217 | 16 | 46 | 11.3 | 27.4 | 0.00 | 0.00 | 0.00 | 77 | 1012.0 |
| 20260503190712 | 16 | 35 | 14.5 | 20.9 | 0.00 | 0.00 | 0.00 | 77 | 1011.9 |
| 20260503190211 | 16 | 26 | 9.7 | 27.4 | 0.00 | 0.00 | 0.00 | 77 | 1011.9 |
| 20260503185719 | 16 | 35 | 12.9 | 27.4 | 0.00 | 0.00 | 0.00 | 77 | 1012.0 |
| 20260503185217 | 16 | 56 | 12.9 | 24.1 | 0.00 | 0.00 | 0.00 | 77 | 1011.9 |
| 20260503184717 | 16 | 57 | 14.5 | 25.7 | 0.00 | 0.00 | 0.00 | 77 | 1011.7 |
| 20260503184219 | 17 | 26 | 11.3 | 25.7 | 0.00 | 0.00 | 0.00 | 76 | 1011.7 |
| 20260503183218 | 17 | 54 | 14.5 | 30.6 | 0.00 | 0.00 | 0.00 | 77 | 1011.6 |
| 20260503182709 | 17 | 54 | 16.1 | 30.6 | 0.00 | 0.00 | 0.00 | 77 | 1011.5 |
| 20260503182208 | 17 | 53 | 16.1 | 30.6 | 0.00 | 0.00 | 0.00 | 76 | 1011.6 |
| 20260503181710 | 17 | 60 | 11.3 | 25.7 | 0.00 | 0.00 | 0.00 | 76 | 1011.6 |
| 20260503181216 | 17 | 57 | 16.1 | 29.0 | 0.00 | 0.00 | 0.00 | 76 | 1011.7 |
| 20260503180707 | 17 | 52 | 11.3 | 29.0 | 0.00 | 0.00 | 0.00 | 76 | 1011.7 |
| 20260503180217 | 17 | 46 | 12.9 | 29.0 | 0.00 | 0.00 | 0.00 | 75 | 1011.7 |
| 20260503175715 | 17 | 64 | 12.9 | 24.1 | 0.00 | 0.00 | 0.00 | 75 | 1011.9 |
| 20260503175211 | 17 | 61 | 11.3 | 24.1 | 0.00 | 0.00 | 0.00 | 75 | 1012.0 |
| 20260503174718 | 17 | 49 | 14.5 | 24.1 | 0.00 | 0.00 | 0.00 | 75 | 1012.0 |
| 20260503174215 | 17 | 60 | 14.5 | 29.0 | 0.00 | 0.00 | 0.00 | 75 | 1012.0 |